• en France
  • Liste des pays
  • À 7 jours
  • Température de l'eau
  • Carte satellitaire
  • Carte météo
  • Widgets météo
  • user-avatar
    Se connecter

    Météo par heure à Constantine

    Ce jour, 24 Septembre, Lundi

    Heure Température Précipitation Vent Pression Humidité
    00:00 +21°C° 0 mm 0 m/s 714 mmHg 71%
    01:00 +20°C° 0 mm 0 m/s 714 mmHg 72%
    02:00 +20°C° 0 mm 0 m/s 713 mmHg 72%
    03:00 +20°C° 0 mm 0 m/s 713 mmHg 72%
    04:00 +20°C° 0 mm 0 m/s 713 mmHg 71%
    05:00 +20°C° 0 mm 0 m/s 713 mmHg 70%
    06:00 +23°C° 0 mm 1 m/s 714 mmHg 67%
    07:00 +24°C° 0 mm 1 m/s 714 mmHg 59%
    08:00 +25°C° 0 mm 1 m/s 714 mmHg 51%
    09:00 +27°C° 0 mm 1 m/s 714 mmHg 43%
    10:00 +28°C° 0 mm 2 m/s 714 mmHg 41%
    11:00 +29°C° 0 mm 3 m/s 714 mmHg 38%
    12:00 +30°C° 0 mm 3 m/s 714 mmHg 36%
    13:00 +30°C° 0 mm 3 m/s 714 mmHg 38%
    14:00 +29°C° 0 mm 4 m/s 714 mmHg 39%
    15:00 +29°C° 0 mm 4 m/s 714 mmHg 41%
    16:00 +28°C° 0 mm 4 m/s 714 mmHg 48%
    17:00 +27°C° 0 mm 3 m/s 714 mmHg 56%
    18:00 +25°C° 0 mm 3 m/s 714 mmHg 63%
    19:00 +25°C° 0 mm 2 m/s 714 mmHg 68%
    20:00 +24°C° 0 mm 2 m/s 714 mmHg 73%
    21:00 +23°C° 0 mm 2 m/s 714 mmHg 78%
    22:00 +23°C° 0 mm 1 m/s 714 mmHg 80%
    23:00 +23°C° 0 mm 1 m/s 714 mmHg 82%

    Demain, 25 Septembre, Mardi

    Heure Température Précipitation Vent Pression Humidité
    00:00 +22°C° 0 mm 1 m/s 714 mmHg 84%
    01:00 +22°C° 0 mm 1 m/s 714 mmHg 85%
    02:00 +22°C° 0 mm 1 m/s 714 mmHg 86%
    03:00 +22°C° 0 mm 1 m/s 713 mmHg 87%
    04:00 +21°C° 0 mm 1 m/s 713 mmHg 87%
    05:00 +21°C° 0 mm 1 m/s 714 mmHg 87%
    06:00 +21°C° 0 mm 1 m/s 714 mmHg 87%
    07:00 +22°C° 0 mm 1 m/s 714 mmHg 81%
    08:00 +23°C° 0 mm 1 m/s 714 mmHg 74%
    09:00 +24°C° 0 mm 1 m/s 715 mmHg 68%
    10:00 +25°C° 0 mm 1 m/s 715 mmHg 61%
    11:00 +27°C° 0 mm 2 m/s 715 mmHg 55%
    12:00 +28°C° 0 mm 2 m/s 715 mmHg 48%
    13:00 +28°C° 0 mm 3 m/s 715 mmHg 47%
    14:00 +28°C° 0 mm 3 m/s 714 mmHg 47%
    15:00 +28°C° 0 mm 3 m/s 714 mmHg 46%
    16:00 +27°C° 0 mm 3 m/s 714 mmHg 52%
    17:00 +26°C° 0 mm 3 m/s 714 mmHg 59%
    18:00 +25°C° 0 mm 4 m/s 714 mmHg 65%
    19:00 +24°C° 0.5 mm 3 m/s 714 mmHg 69%
    20:00 +23°C° 0.5 mm 2 m/s 714 mmHg 73%
    21:00 +21°C° 0.5 mm 2 m/s 715 mmHg 77%
    22:00 +21°C° 0.3 mm 2 m/s 715 mmHg 79%
    23:00 +22°C° 0.3 mm 1 m/s 714 mmHg 81%

    Après-demain, 26 Septembre, Mercredi

    Heure Température Précipitation Vent Pression Humidité
    00:00 +21°C° 0.3 mm 1 m/s 714 mmHg 83%
    01:00 +21°C° 0.1 mm 1 m/s 714 mmHg 84%
    02:00 +21°C° 0.1 mm 1 m/s 714 mmHg 85%
    03:00 +20°C° 0.1 mm 1 m/s 714 mmHg 87%
    04:00 +20°C° 0 mm 1 m/s 714 mmHg 87%
    05:00 +20°C° 0 mm 1 m/s 714 mmHg 87%
    06:00 +20°C° 0 mm 1 m/s 715 mmHg 87%
    07:00 +21°C° 0 mm 1 m/s 715 mmHg 78%
    08:00 +23°C° 0 mm 1 m/s 716 mmHg 70%
    09:00 +24°C° 0 mm 1 m/s 716 mmHg 62%
    10:00 +25°C° 0.1 mm 2 m/s 716 mmHg 57%
    11:00 +26°C° 0.1 mm 2 m/s 716 mmHg 52%
    12:00 +27°C° 0.1 mm 3 m/s 716 mmHg 48%
    13:00 +28°C° 0 mm 3 m/s 716 mmHg 48%
    14:00 +28°C° 0 mm 4 m/s 716 mmHg 48%
    15:00 +28°C° 0 mm 4 m/s 716 mmHg 48%
    16:00 +27°C° 0 mm 4 m/s 716 mmHg 53%
    17:00 +26°C° 0 mm 4 m/s 716 mmHg 58%
    18:00 +25°C° 0 mm 4 m/s 716 mmHg 63%
    19:00 +24°C° 0.1 mm 3 m/s 717 mmHg 67%
    20:00 +24°C° 0.1 mm 3 m/s 717 mmHg 71%
    21:00 +22°C° 0.1 mm 3 m/s 717 mmHg 75%
    22:00 +22°C° 0 mm 3 m/s 717 mmHg 75%
    23:00 +21°C° 0 mm 3 m/s 717 mmHg 76%

    27 Septembre, Jeudi

    Heure Température Précipitation Vent Pression Humidité
    00:00 +21°C° 0 mm 2 m/s 717 mmHg 77%
    01:00 +21°C° 0 mm 2 m/s 717 mmHg 78%
    02:00 +20°C° 0 mm 2 m/s 717 mmHg 79%
    03:00 +20°C° 0 mm 2 m/s 717 mmHg 80%
    04:00 +20°C° 0 mm 2 m/s 717 mmHg 80%
    05:00 +20°C° 0 mm 2 m/s 717 mmHg 81%
    06:00 +20°C° 0 mm 2 m/s 717 mmHg 81%
    07:00 +21°C° 0 mm 2 m/s 717 mmHg 73%
    08:00 +24°C° 0 mm 2 m/s 718 mmHg 65%
    09:00 +25°C° 0 mm 2 m/s 718 mmHg 57%
    10:00 +26°C° 0 mm 2 m/s 718 mmHg 53%
    11:00 +27°C° 0 mm 2 m/s 718 mmHg 48%
    12:00 +28°C° 0 mm 2 m/s 718 mmHg 43%
    13:00 +28°C° 0 mm 2 m/s 717 mmHg 43%
    14:00 +28°C° 0 mm 3 m/s 717 mmHg 43%
    15:00 +28°C° 0 mm 3 m/s 716 mmHg 43%
    16:00 +27°C° 0 mm 3 m/s 716 mmHg 48%
    17:00 +26°C° 0 mm 3 m/s 716 mmHg 53%
    18:00 +25°C° 0 mm 3 m/s 716 mmHg 58%
    19:00 +24°C° 0 mm 2 m/s 716 mmHg 62%
    20:00 +23°C° 0 mm 2 m/s 716 mmHg 66%
    21:00 +23°C° 0 mm 1 m/s 716 mmHg 71%
    22:00 +22°C° 0 mm 1 m/s 715 mmHg 72%
    23:00 +22°C° 0 mm 1 m/s 715 mmHg 74%

    28 Septembre, Vendredi

    Heure Température Précipitation Vent Pression Humidité
    00:00 +21°C° 0 mm 1 m/s 714 mmHg 76%
    01:00 +21°C° 0 mm 1 m/s 714 mmHg 77%
    02:00 +19°C° 0 mm 0 m/s 714 mmHg 78%
    03:00 +18°C° 0 mm 0 m/s 713 mmHg 79%
    04:00 +18°C° 0 mm 0 m/s 713 mmHg 79%
    05:00 +18°C° 0 mm 0 m/s 713 mmHg 80%
    06:00 +18°C° 0 mm 0 m/s 713 mmHg 80%
    07:00 +21°C° 0 mm 1 m/s 714 mmHg 72%
    08:00 +23°C° 0 mm 1 m/s 714 mmHg 64%
    09:00 +24°C° 0 mm 1 m/s 714 mmHg 56%
    10:00 +25°C° 0 mm 2 m/s 714 mmHg 50%
    11:00 +26°C° 0 mm 2 m/s 714 mmHg 44%
    12:00 +27°C° 0 mm 3 m/s 714 mmHg 38%
    13:00 +27°C° 0 mm 3 m/s 713 mmHg 38%
    14:00 +27°C° 0 mm 4 m/s 713 mmHg 38%
    15:00 +28°C° 0 mm 4 m/s 712 mmHg 38%
    16:00 +26°C° 0 mm 3 m/s 712 mmHg 44%
    17:00 +25°C° 0 mm 3 m/s 712 mmHg 49%
    18:00 +23°C° 0 mm 2 m/s 712 mmHg 55%
    19:00 +23°C° 0 mm 2 m/s 712 mmHg 59%
    20:00 +22°C° 0 mm 1 m/s 712 mmHg 63%
    21:00 +21°C° 0 mm 1 m/s 712 mmHg 67%
    22:00 +21°C° 0 mm 1 m/s 712 mmHg 69%
    23:00 +19°C° 0 mm 0 m/s 712 mmHg 71%

    29 Septembre, Samedi

    Heure Température Précipitation Vent Pression Humidité
    00:00 +18°C° 0 mm 0 m/s 711 mmHg 72%
    01:00 +18°C° 0 mm 0 m/s 711 mmHg 73%
    02:00 +18°C° 0 mm 0 m/s 711 mmHg 74%
    03:00 +17°C° 0 mm 0 m/s 711 mmHg 75%
    04:00 +17°C° 0 mm 0 m/s 711 mmHg 74%
    05:00 +17°C° 0 mm 0 m/s 711 mmHg 74%
    06:00 +17°C° 0 mm 0 m/s 711 mmHg 73%
    07:00 +19°C° 0 mm 0 m/s 711 mmHg 65%
    08:00 +21°C° 0 mm 0 m/s 712 mmHg 57%
    09:00 +25°C° 0 mm 1 m/s 712 mmHg 49%
    10:00 +26°C° 0 mm 1 m/s 712 mmHg 44%
    11:00 +27°C° 0 mm 2 m/s 712 mmHg 40%
    12:00 +28°C° 0 mm 2 m/s 712 mmHg 35%
    13:00 +28°C° 0 mm 3 m/s 712 mmHg 35%
    14:00 +29°C° 0 mm 3 m/s 711 mmHg 35%
    15:00 +29°C° 0 mm 3 m/s 711 mmHg 35%
    16:00 +27°C° 0 mm 3 m/s 711 mmHg 40%
    17:00 +26°C° 0 mm 3 m/s 711 mmHg 45%
    18:00 +24°C° 0 mm 2 m/s 711 mmHg 50%
    19:00 +24°C° 0 mm 2 m/s 711 mmHg 53%
    20:00 +23°C° 0 mm 1 m/s 711 mmHg 56%
    21:00 +22°C° 0 mm 1 m/s 712 mmHg 59%
    22:00 +22°C° 0 mm 1 m/s 711 mmHg 60%
    23:00 +22°C° 0 mm 1 m/s 711 mmHg 60%
    Voir plus